Weather History for Pensacola NAS, FL

Change the Weather History Date:

Sunday, October 21, 2012

  Actual Average Record
Temperature  
Mean Temperature 64 °F -  
Max Temperature 81 °F 76 °F 84 °F (1998)
Min Temperature 48 °F 56 °F 37 °F (2011)
Degree Days  
Heating Degree Days 1    
Growing Degree Days 14 (Base 50)    
Moisture  
Dew Point 52 °F    
Average Humidity 73    
Maximum Humidity 100    
Minimum Humidity 35    
Precipitation  
Precipitation 0.00 in - - ()
Sea Level Pressure  
Sea Level Pressure 30.08 in    
Wind  
Wind Speed 3 mph (NE)    
Max Wind Speed 12 mph    
Max Gust Speed -    
Visibility 10 miles    
Events      
Averages and records for this station are not official NWS values.
T = Trace of Precipitation, MM = Missing Value Source: NWS Daily Summary

Daily Weather History Graph

Daily Weather History Graph

Search for Another Location

Airport:

Trip Planner

Search our weather history database for the weather conditions in past years. The results will help you decide how hot, cold, wet, or windy it might be!

Date:

Astronomy

Oct. 21, 2012 Rise Set
Actual Time 6:55 AM CDT 6:11 PM CDT
Civil Twilight 6:31 AM CDT 6:35 PM CDT
Nautical Twilight 6:03 AM CDT 7:03 PM CDT
Astronomical Twilight 5:35 AM CDT 7:31 PM CDT
Moon 1:08 PM CDT (10/21) No Moon Set
Length of Visible Light 12h 04m
Length of Day
11h 15m
Waxing Crescent, 45% of the Moon is Illuminated
Oct 21
Waxing Crescent
Oct 21
First Quarter
Oct 29
Full
Nov 6
Last Quarter
Nov 13
New

Hourly Weather History & Observations

Time (CDT) Temp. Dew Point Humidity Pressure Visibility Wind Dir Wind Speed Gust Speed Precip Events Conditions
12:56 AM 50.0 °F 50.0 °F 100% 30.01 in 10.0 mi Calm Calm - N/A   Clear
1:56 AM 51.1 °F 51.1 °F 100% 30.01 in 10.0 mi Calm Calm - 0.00 in   Clear
2:56 AM 51.1 °F 50.0 °F 96% 30.01 in 10.0 mi NNW 3.5 mph - N/A   Clear
3:56 AM 48.9 °F 48.9 °F 100% 30.02 in 10.0 mi Calm Calm - 0.00 in   Clear
4:56 AM 48.9 °F 48.9 °F 100% 30.04 in 6.0 mi North 3.5 mph - 0.00 in   Clear
5:56 AM 51.1 °F 50.0 °F 96% 30.06 in 10.0 mi NNW 4.6 mph - N/A   Clear
6:56 AM 50.0 °F 48.9 °F 96% 30.08 in 10.0 mi NNE 3.5 mph - N/A   Clear
7:56 AM 59.0 °F 54.0 °F 83% 30.10 in 10.0 mi NE 3.5 mph - N/A   Clear
8:56 AM 66.0 °F 55.0 °F 68% 30.12 in 10.0 mi ENE 6.9 mph - N/A   Clear
9:56 AM 70.0 °F 51.1 °F 51% 30.13 in 10.0 mi ENE 11.5 mph - N/A   Clear
10:56 AM 73.0 °F 50.0 °F 44% 30.13 in 10.0 mi ENE 8.1 mph - N/A   Clear
11:56 AM 75.0 °F 52.0 °F 44% 30.12 in 10.0 mi East 9.2 mph - N/A   Clear
12:06 PM 75.2 °F 51.8 °F 44% 30.11 in 10.0 mi ENE 9.2 mph - N/A   Clear
12:56 PM 78.1 °F 53.1 °F 42% 30.09 in 10.0 mi Variable 6.9 mph - N/A   Partly Cloudy
1:56 PM 80.1 °F 50.0 °F 35% 30.07 in 10.0 mi Variable 5.8 mph - N/A   Partly Cloudy
2:56 PM 80.1 °F 50.0 °F 35% 30.06 in 10.0 mi East 8.1 mph - N/A   Partly Cloudy
3:56 PM 80.1 °F 50.0 °F 35% 30.05 in 10.0 mi ENE 6.9 mph - N/A   Partly Cloudy
4:56 PM 78.1 °F 51.1 °F 39% 30.05 in 10.0 mi ENE 4.6 mph - N/A   Scattered Clouds
5:56 PM 71.1 °F 57.0 °F 61% 30.06 in 10.0 mi Calm Calm - N/A   Mostly Cloudy
6:56 PM 64.0 °F 57.0 °F 78% 30.07 in 10.0 mi Calm Calm - N/A   Mostly Cloudy
7:56 PM 61.0 °F 57.0 °F 87% 30.08 in 10.0 mi Calm Calm - N/A   Mostly Cloudy
8:56 PM 57.9 °F 55.9 °F 93% 30.09 in 10.0 mi Calm Calm - N/A   Scattered Clouds
9:56 PM 57.9 °F 55.0 °F 90% 30.10 in 10.0 mi Calm Calm - N/A   Scattered Clouds
10:01 PM 57.2 °F 55.4 °F 94% 30.10 in 10.0 mi Calm Calm - N/A   Scattered Clouds
10:56 PM 57.0 °F 55.0 °F 93% 30.10 in 10.0 mi Calm Calm - N/A   Clear
11:56 PM 57.9 °F 55.9 °F 93% 30.09 in 10.0 mi Calm Calm - N/A   Clear